DW7447 Weather Reports


Display with metric or nautical units.
time (UTC)temp
F
wind
direction
speed
MPH
gust
MPH
rain 1hr
in
rain 24hr
in
rain mn
in
humidity
%
barometer
mb
20260502234421 55 31 3.0 6.0 0.02 0.02 0.02 86 1012.0
20260502233924 55 135 1.0 4.0 0.02 0.02 0.02 86 1012.0
20260502233421 56 135 1.0 4.0 0.02 0.02 0.01 86 1012.0
20260502232923 56 161 2.0 6.0 0.01 0.01 0.01 85 1012.1
20260502232422 56 162 2.0 6.0 0.01 0.01 0.01 83 1012.1
20260502231923 56 142 2.0 6.0 0.00 0.00 0.00 83 1012.2
20260502231421 56 159 3.0 6.0 0.00 0.00 0.00 82 1012.2
20260502230422 56 141 2.0 11.0 0.00 0.00 0.00 79 1012.3
20260502225923 56 111 5.0 9.0 0.00 0.00 0.00 79 1012.3
20260502225422 56 92 3.0 7.0 0.00 0.00 0.00 79 1012.3
20260502224922 56 37 1.0 6.0 0.00 0.00 0.00 78 1012.3
20260502224423 56 37 1.0 8.0 0.00 0.00 0.00 77 1012.3
20260502223923 56 103 5.0 8.0 0.00 0.00 0.00 79 1012.3
20260502222923 56 100 2.0 8.0 0.00 0.00 0.00 79 1012.2
20260502222421 56 68 3.0 8.0 0.00 0.00 0.00 79 1012.2
20260502221922 56 28 4.0 7.0 0.00 0.00 0.00 79 1012.3
20260502221423 56 55 1.0 7.0 0.00 0.00 0.00 79 1012.3
20260502220923 56 48 3.0 7.0 0.00 0.00 0.00 79 1012.4
20260502220422 56 51 4.0 7.0 0.00 0.00 0.00 79 1012.4
20260502215922 56 38 3.0 8.0 0.00 0.00 0.00 79 1012.3
20260502215422 56 54 4.0 8.0 0.00 0.00 0.00 79 1012.5
20260502214423 56 31 4.0 7.0 0.00 0.00 0.00 78 1012.4
20260502213924 56 37 4.0 8.0 0.00 0.00 0.00 78 1012.5
20260502213422 57 45 3.0 8.0 0.00 0.00 0.00 78 1012.6
20260502212422 57 54 3.0 7.0 0.00 0.00 0.00 77 1012.4
20260502211923 57 55 3.0 6.0 0.00 0.00 0.00 77 1012.5
20260502210924 57 47 3.0 8.0 0.00 0.00 0.00 76 1012.6
20260502210422 57 37 5.0 8.0 0.00 0.00 0.00 76 1012.6
20260502205921 58 37 5.0 7.0 0.00 0.00 0.00 76 1012.6
20260502205421 58 13 4.0 8.0 0.00 0.00 0.00 75 1012.7
20260502204923 58 1 4.0 8.0 0.00 0.00 0.00 74 1012.6
20260502203923 58 42 1.0 5.0 0.00 0.00 0.00 74 1012.6
20260502203423 58 42 2.0 6.0 0.00 0.00 0.00 73 1012.6
20260502202923 58 87 1.0 6.0 0.00 0.00 0.00 73 1012.7
20260502201422 59 80 0.0 6.0 0.00 0.00 0.00 73 1012.9
20260502200922 59 90 1.0 4.0 0.00 0.00 0.00 73 1012.9
20260502195924 59 90 2.0 6.0 0.00 0.00 0.00 73 1012.8
20260502194925 59 68 1.0 6.0 0.00 0.00 0.00 72 1012.7
20260502193923 59 73 2.0 6.0 0.00 0.00 0.00 72 1012.8
20260502193421 59 56 1.0 6.0 0.00 0.00 0.00 72 1012.8
20260502192923 60 73 1.0 7.0 0.00 0.00 0.00 71 1012.8
20260502192422 60 87 3.0 7.0 0.00 0.00 0.00 71 1012.7
20260502191923 60 131 4.0 7.0 0.00 0.00 0.00 71 1012.7
20260502190422 60 87 3.0 8.0 0.00 0.00 0.00 71 1012.7
20260502185923 60 83 4.0 8.0 0.00 0.00 0.00 71 1012.7
20260502185423 61 72 3.0 7.0 0.00 0.00 0.00 71 1012.7
20260502184921 61 93 3.0 7.0 0.00 0.00 0.00 71 1012.8
20260502183923 61 87 4.0 6.0 0.00 0.00 0.00 70 1012.9
20260502183424 61 63 3.0 7.0 0.00 0.00 0.00 70 1012.8
20260502182923 61 134 3.0 8.0 0.00 0.00 0.00 70 1012.9
20260502182423 61 93 3.0 8.0 0.00 0.00 0.00 70 1012.8
20260502181906 62 56 3.0 8.0 0.00 0.00 0.00 69 1012.7
20260502181405 62 65 3.0 7.0 0.00 0.00 0.00 68 1012.7
20260502180405 63 286 2.0 6.0 0.00 0.00 0.00 66 1012.6
20260502164335 65 261 4.0 7.0 0.00 0.00 0.00 62 1013.0
20260502162824 66 286 3.0 8.0 0.00 0.00 0.00 60 1013.0
20260502162322 66 228 3.0 8.0 0.00 0.00 0.00 61 1013.0
20260502161822 66 244 3.0 7.0 0.00 0.00 0.00 61 1013.0
20260502161323 66 309 2.0 8.0 0.00 0.00 0.00 60 1013.1
20260502160823 66 264 5.0 8.0 0.00 0.00 0.00 60 1013.0
20260502160321 66 251 3.0 11.0 0.00 0.00 0.00 61 1013.2
20260502152323 67 240 5.0 11.0 0.00 0.00 0.00 59 1013.5
20260502151823 67 195 5.0 11.0 0.00 0.00 0.00 60 1013.5
20260502151322 67 271 4.0 8.0 0.00 0.00 0.00 60 1013.6
20260502150821 67 185 4.0 9.0 0.00 0.00 0.00 60 1013.6
20260502150321 66 223 4.0 11.0 0.00 0.00 0.00 60 1013.6
20260502130326 65 250 6.0 16.0 0.00 0.00 0.00 60 1014.4
20260502123323 65 237 7.0 16.0 0.00 0.00 0.00 62 1014.7
20260502122822 65 237 10.0 16.0 0.00 0.00 0.00 62 1014.6
20260502122321 65 241 6.0 14.0 0.00 0.00 0.00 63 1014.5
20260502121821 65 234 9.0 16.0 0.00 0.00 0.00 62 1014.6
20260502121323 65 234 11.0 16.0 0.00 0.00 0.00 62 1014.6
20260502120822 65 200 9.0 15.0 0.00 0.00 0.00 62 1014.6
20260502120321 65 252 8.0 15.0 0.00 0.00 0.00 62 1014.6
20260502115822 65 257 8.0 14.0 0.00 0.00 0.00 63 1014.7
20260502114823 65 274 6.0 14.0 0.00 0.00 0.00 65 1014.6
20260502113822 64 258 9.0 16.0 0.00 0.00 0.00 65 1014.7
20260502112824 64 241 7.0 15.0 0.00 0.00 0.00 66 1014.8
20260502112321 64 257 8.0 15.0 0.00 0.00 0.00 67 1014.7
20260502111324 64 216 9.0 16.0 0.00 0.00 0.00 68 1015.0
20260502110822 63 227 6.0 17.0 0.00 0.00 0.00 69 1015.0
20260502110336 63 224 8.0 17.0 0.00 0.00 0.00 69 1014.8
20260502105821 63 188 10.0 15.0 0.00 0.00 0.00 69 1014.9
20260502105322 63 264 8.0 15.0 0.00 0.00 0.00 69 1014.8
20260502104821 63 224 7.0 15.0 0.00 0.00 0.00 70 1014.9
20260502104321 63 231 8.0 15.0 0.00 0.00 0.00 70 1014.8
20260502103822 62 240 8.0 15.0 0.00 0.00 0.00 70 1014.8
20260502103320 62 240 6.0 17.0 0.00 0.00 0.00 70 1014.9
20260502102822 62 233 6.0 17.0 0.00 0.00 0.00 72 1014.9
20260502102320 62 190 11.0 17.0 0.00 0.00 0.00 71 1014.9
20260502101319 62 227 7.0 15.0 0.00 0.00 0.00 72 1015.0
20260502100320 61 207 8.0 14.0 0.00 0.00 0.00 74 1015.1
20260502090820 57 210 8.0 18.0 0.00 0.00 0.00 80 1015.6
20260502090320 57 228 10.0 18.0 0.00 0.00 0.00 81 1015.5
20260502071320 52 234 8.0 19.0 0.00 0.00 0.00 88 1015.3
20260502070818 52 220 10.0 17.0 0.00 0.00 0.00 89 1015.3
20260502065819 51 219 10.0 16.0 0.00 0.00 0.00 89 1015.3
20260502064820 51 185 8.0 17.0 0.00 0.00 0.00 89 1015.4
20260502063819 51 238 9.0 18.0 0.00 0.00 0.00 89 1015.5
20260502063319 51 231 9.0 15.0 0.00 0.00 0.00 89 1015.4
20260502062819 51 226 9.0 14.0 0.00 0.00 0.00 90 1015.4
20260502062320 51 216 8.0 14.0 0.00 0.00 0.00 89 1015.3
20260502061821 50 228 8.0 17.0 0.00 0.00 0.00 89 1015.3
20260502061319 50 245 9.0 17.0 0.00 0.00 0.00 89 1015.5
20260502060818 50 213 7.0 14.0 0.00 0.00 0.00 89 1015.4
20260502060320 50 231 5.0 18.0 0.00 0.00 0.00 89 1015.4
20260502055819 50 233 9.0 18.0 0.00 0.00 0.00 89 1015.3
20260502055317 50 188 5.0 13.0 0.00 0.00 0.00 89 1015.3
20260502054819 50 240 9.0 13.0 0.00 0.00 0.00 90 1015.5
20260502054320 50 243 3.0 11.0 0.00 0.00 0.00 89 1015.5
20260502053320 50 233 3.0 12.0 0.00 0.00 0.00 89 1015.5
20260502052818 50 245 5.0 12.0 0.00 0.00 0.00 89 1015.4
20260502051819 50 233 4.0 11.0 0.00 0.00 0.00 88 1015.4
20260502051320 50 210 5.0 15.0 0.00 0.00 0.00 89 1015.5
20260502050820 50 213 7.0 15.0 0.00 0.00 0.00 88 1015.3
20260502050320 50 224 7.0 15.0 0.00 0.00 0.00 88 1015.4
20260502045819 50 224 7.0 15.0 0.00 0.00 0.00 88 1015.4
20260502044821 50 203 6.0 19.0 0.00 0.00 0.00 88 1015.5
20260502044321 50 202 8.0 19.0 0.00 0.00 0.00 89 1015.6
20260502043819 50 209 7.0 16.0 0.00 0.00 0.00 89 1015.5
20260502043320 50 214 10.0 16.0 0.00 0.00 0.00 89 1015.5
20260502042820 50 227 9.0 16.0 0.00 0.00 0.00 89 1015.5
20260502042318 50 240 10.0 16.0 0.00 0.00 0.00 89 1015.5
20260502041819 50 216 7.0 16.0 0.00 0.00 0.00 89 1015.5
20260502041321 50 213 9.0 16.0 0.00 0.00 0.00 89 1015.5
20260502040820 51 214 10.0 16.0 0.00 0.00 0.00 89 1015.5
20260502040321 51 226 8.0 17.0 0.00 0.00 0.00 89 1015.5
20260502035821 51 214 8.0 17.0 0.00 0.00 0.00 88 1015.5
20260502035321 51 245 7.0 16.0 0.00 0.00 0.00 88 1015.4
20260502034820 51 214 6.0 16.0 0.00 0.00 0.00 88 1015.6
20260502034320 51 224 9.0 14.0 0.00 0.00 0.00 88 1015.6
20260502033818 51 228 7.0 17.0 0.00 0.00 0.00 88 1015.6
20260502033318 51 231 9.0 17.0 0.00 0.00 0.00 88 1015.5
20260502032820 51 226 7.0 15.0 0.00 0.00 0.00 88 1015.6
20260502031819 52 204 9.0 15.0 0.00 0.00 0.00 88 1015.5
20260502031320 52 207 9.0 14.0 0.00 0.00 0.00 88 1015.5
20260502030820 52 176 8.0 14.0 0.00 0.00 0.00 88 1015.4
20260502030319 52 210 5.0 13.0 0.00 0.00 0.00 88 1015.5
20260502025821 52 214 5.0 13.0 0.00 0.00 0.00 88 1015.6
20260502025318 52 257 6.0 11.0 0.00 0.00 0.00 89 1015.7
20260502024820 53 230 4.0 11.0 0.00 0.00 0.00 88 1015.7
20260502024321 53 220 6.0 11.0 0.00 0.00 0.00 88 1015.6
20260502023820 53 276 4.0 9.0 0.00 0.00 0.00 88 1015.6
20260502023321 53 233 4.0 12.0 0.00 0.00 0.00 87 1015.7
20260502022820 53 276 6.0 12.0 0.00 0.00 0.00 87 1015.8
20260502022320 53 244 4.0 11.0 0.00 0.00 0.00 87 1015.8
20260502021818 53 245 5.0 11.0 0.00 0.00 0.00 87 1015.9
20260502021319 53 228 4.0 11.0 0.00 0.00 0.00 86 1016.0
20260502020821 53 224 6.0 11.0 0.00 0.00 0.00 86 1015.9
20260502015821 53 233 5.0 12.0 0.00 0.00 0.00 86 1016.0
20260502015321 53 204 6.0 12.0 0.00 0.00 0.00 86 1016.1
20260502014819 53 212 4.0 12.0 0.00 0.00 0.00 86 1016.1
20260502013821 54 237 5.0 11.0 0.00 0.00 0.00 83 1016.2
20260502013320 54 219 6.0 12.0 0.00 0.00 0.00 83 1016.2
20260502012320 54 262 5.0 12.0 0.00 0.00 0.00 83 1016.3
20260502011820 54 228 5.0 9.0 0.00 0.00 0.00 84 1016.4
20260502011322 55 244 4.0 8.0 0.00 0.00 0.00 83 1016.6
20260502010821 55 234 4.0 8.0 0.00 0.00 0.00 84 1016.6
20260502010319 55 261 3.0 9.0 0.00 0.00 0.00 84 1016.6
20260502005822 55 235 3.0 9.0 0.00 0.00 0.00 84 1016.7
20260502005321 55 224 5.0 9.0 0.00 0.00 0.00 85 1016.8
20260502004818 55 231 4.0 11.0 0.00 0.00 0.00 85 1016.7
20260502004321 55 262 5.0 11.0 0.00 0.00 0.00 86 1016.8
20260502003823 55 288 6.0 11.0 0.00 0.00 0.00 86 1016.8
20260502003320 55 227 3.0 7.0 0.00 0.00 0.00 86 1016.8
20260502002821 55 248 4.0 6.0 0.00 0.00 0.00 86 1016.8
20260502002321 55 210 1.0 8.0 0.00 0.00 0.00 85 1016.9
20260502001803 55 251 3.0 8.0 0.00 0.00 0.00 85 1016.9
20260502001303 55 209 3.0 8.0 0.00 0.00 0.00 85 1016.9
20260501235305 56 224 3.0 9.0 0.00 0.00 0.00 85 1017.2